Date String (YYYY-MM-DD hh:mm:ss) UTC,Instrument flags,Ambient pressure (hPa),Sample flow (lpm),Bypass flow (lpm),Sample temperature (°C),Ambient temperature (°C),ASC tube jacket temperature (°C),LED temperature (°C),Box temperature (°C),Sample RH (%),Span deviation,Mass concentration (μg/m³),Mass concentration (μg/m³),Mass concentration (μg/m³)
DateTimeUTC,F1_M11,P_M11,Q1_M11,Q2_M11,T1_M11,T2_M11,T3_M11,T4_M11,T5_M11,U1_M11,ZSPAN_M11,X0_M11,X2_M11,X1_M11
2023-05-27 23:00:00,,0824.9,5.01,0.00,29.6,28.1,00.0,37.9,31.3,21.1,0000.0,0009.16,0004.05,0003.30
2023-05-27 23:01:00,,0825.0,5.00,0.00,29.6,28.3,00.0,37.9,31.4,21.1,0000.0,0009.20,0004.05,0003.28
2023-05-27 23:02:00,,0825.1,4.99,0.00,29.7,28.4,00.0,37.9,31.4,21.1,0000.0,0009.17,0004.08,0003.26
2023-05-27 23:03:00,,0825.1,4.99,0.00,29.7,28.3,00.0,38.0,31.4,21.7,0000.0,0009.23,0004.08,0003.24
2023-05-27 23:04:00,,0825.1,5.00,0.00,29.7,26.9,00.0,37.9,31.3,22.2,0000.0,0009.11,0004.04,0003.21
2023-05-27 23:05:00,,0825.1,5.00,0.00,29.7,26.0,00.0,37.8,31.1,21.8,0000.0,0009.18,0004.06,0003.20
2023-05-27 23:06:00,,0825.1,5.01,0.00,29.6,26.0,00.0,37.8,31.0,22.1,0000.0,0009.02,0004.05,0003.19
2023-05-27 23:07:00,,0825.1,5.00,0.00,29.5,26.3,00.0,37.8,31.0,22.9,0000.0,0008.63,0004.11,0003.18
2023-05-27 23:08:00,,0825.2,5.00,0.00,29.5,26.6,00.0,37.8,31.0,22.2,0000.0,0008.82,0004.15,0003.18
2023-05-27 23:09:00,,0825.2,5.00,0.00,29.5,27.0,00.0,37.8,31.1,21.1,0000.0,0008.88,0004.18,0003.18
2023-05-27 23:10:00,,0825.2,5.01,0.00,29.5,27.3,00.0,37.8,31.2,21.1,0000.0,0008.80,0004.16,0003.17
2023-05-27 23:11:00,,0825.2,4.99,0.00,29.5,27.6,00.0,37.9,31.2,20.6,0000.0,0008.75,0004.14,0003.15
2023-05-27 23:12:00,,0825.2,5.00,0.00,29.6,27.8,00.0,37.9,31.3,20.1,0000.0,0008.83,0004.12,0003.14
2023-05-27 23:13:00,,0825.2,5.00,0.00,29.6,28.0,00.0,37.9,31.3,21.1,0000.0,0009.05,0004.16,0003.13
2023-05-27 23:14:00,,0825.2,5.00,0.00,29.6,28.2,00.0,37.9,31.4,20.1,0000.0,0009.83,0004.16,0003.11
2023-05-27 23:15:00,,0825.1,5.00,0.00,29.7,28.3,00.0,37.9,31.4,19.8,0000.0,0010.02,0004.18,0003.10
2023-05-27 23:16:00,,0825.1,4.98,0.00,29.7,27.3,00.0,37.9,31.3,20.6,0000.0,0010.09,0004.20,0003.10
2023-05-27 23:17:00,,0825.0,5.01,0.00,29.6,26.0,00.0,37.8,31.1,20.5,0000.0,0010.21,0004.24,0003.09
2023-05-27 23:18:00,,0825.0,5.01,0.00,29.6,26.0,00.0,37.8,31.0,20.5,0000.0,0009.82,0004.18,0003.08
2023-05-27 23:19:00,,0825.0,5.01,0.00,29.5,26.2,00.0,37.8,31.0,20.9,0000.0,0009.58,0004.12,0003.06
2023-05-27 23:20:00,,0824.9,4.99,0.00,29.5,26.5,00.0,37.8,31.0,20.9,0000.0,0010.82,0004.09,0003.04
2023-05-27 23:21:00,,0824.9,5.00,0.00,29.5,26.9,00.0,37.8,31.1,19.1,0000.0,0010.87,0004.07,0003.03
2023-05-27 23:22:00,,0824.9,4.99,0.00,29.5,27.2,00.0,37.8,31.1,18.7,0000.0,0010.84,0004.05,0003.02
2023-05-27 23:23:00,,0824.9,5.00,0.00,29.5,27.5,00.0,37.8,31.2,18.5,0000.0,0010.68,0004.01,0002.99
2023-05-27 23:24:00,,0824.9,4.99,0.00,29.5,27.7,00.0,37.8,31.2,17.7,0000.0,0010.46,0003.98,0002.95
2023-05-27 23:25:00,,0824.8,5.00,0.00,29.6,27.9,00.0,37.8,31.3,18.6,0000.0,0009.56,0003.89,0002.92
2023-05-27 23:26:00,,0824.7,5.00,0.00,29.6,28.1,00.0,37.9,31.3,19.2,0000.0,0009.10,0003.82,0002.91
2023-05-27 23:27:00,,0824.7,5.00,0.00,29.6,28.2,00.0,37.9,31.3,18.4,0000.0,0009.38,0003.76,0002.89
2023-05-27 23:28:00,,0824.7,5.00,0.00,29.6,28.3,00.0,37.9,31.4,19.2,0000.0,0009.24,0003.67,0002.85
2023-05-27 23:29:00,,0824.7,5.01,0.00,29.7,28.4,00.0,37.9,31.4,20.0,0000.0,0009.56,0003.69,0002.85
2023-05-27 23:30:00,,0824.7,5.00,0.00,29.7,28.5,00.0,37.9,31.5,19.9,0000.0,0009.85,0003.71,0002.84
2023-05-27 23:31:00,,0824.7,4.98,0.00,29.7,27.4,00.0,37.9,31.3,19.2,0000.0,0008.94,0003.68,0002.81
2023-05-27 23:32:00,,0824.7,5.00,0.00,29.7,26.1,00.0,37.8,31.2,19.5,0000.0,0009.06,0003.70,0002.82
2023-05-27 23:33:00,,0824.7,5.01,0.00,29.6,26.1,00.0,37.8,31.1,20.8,0000.0,0009.21,0003.71,0002.83
2023-05-27 23:34:00,,0824.7,5.01,0.00,29.6,26.3,00.0,37.8,31.0,19.9,0000.0,0010.57,0003.73,0002.86
2023-05-27 23:35:00,,0824.7,4.99,0.00,29.5,26.6,00.0,37.8,31.1,20.7,0000.0,0011.10,0003.77,0002.89
2023-05-27 23:36:00,,0824.7,4.99,0.00,29.5,27.0,00.0,37.8,31.1,20.3,0000.0,0011.90,0003.86,0002.92
2023-05-27 23:37:00,,0824.8,5.00,0.00,29.5,27.3,00.0,37.9,31.2,21.0,0000.0,0012.06,0003.92,0002.95
2023-05-27 23:38:00,,0824.9,5.00,0.00,29.6,27.6,00.0,37.9,31.2,23.3,0000.0,0012.46,0003.98,0003.05
2023-05-27 23:39:00,,0824.9,5.01,0.00,29.6,27.8,00.0,37.9,31.3,24.4,0000.0,0012.26,0004.06,0003.13
2023-05-27 23:40:00,,0824.9,5.01,0.00,29.6,28.0,00.0,37.9,31.3,23.8,0000.0,0012.34,0004.12,0003.19
2023-05-27 23:41:00,,0825.0,5.00,0.00,29.6,28.2,00.0,37.9,31.4,23.9,0000.0,0012.26,0004.20,0003.27
2023-05-27 23:42:00,,0825.1,5.01,0.00,29.7,28.3,00.0,37.9,31.4,24.7,0000.0,0012.15,0004.30,0003.36
2023-05-27 23:43:00,,0825.2,4.99,0.00,29.7,28.3,00.0,38.0,31.4,24.8,0000.0,0012.14,0004.33,0003.43
2023-05-27 23:44:00,,0825.3,4.99,0.00,29.7,26.9,00.0,37.9,31.3,23.6,0000.0,0012.48,0004.37,0003.48
2023-05-27 23:45:00,,0825.3,5.01,0.00,29.6,25.3,00.0,37.8,31.0,23.1,0000.0,0011.22,0004.43,0003.53
2023-05-27 23:46:00,,0825.3,5.01,0.00,29.5,25.0,00.0,37.7,30.9,24.2,0000.0,0010.76,0004.43,0003.59
2023-05-27 23:47:00,,0825.4,4.99,0.00,29.5,25.3,00.0,37.7,30.8,25.6,0000.0,0010.17,0004.47,0003.66
2023-05-27 23:48:00,,0825.3,4.98,0.00,29.4,25.7,00.0,37.7,30.8,26.8,0000.0,0010.36,0004.57,0003.74
2023-05-27 23:49:00,,0825.3,5.00,0.00,29.4,26.1,00.0,37.7,30.9,27.0,0000.0,0010.69,0004.67,0003.80
2023-05-27 23:50:00,,0825.3,5.00,0.00,29.4,26.5,00.0,37.7,30.9,26.5,0000.0,0010.84,0004.70,0003.85
2023-05-27 23:51:00,,0825.3,5.01,0.00,29.4,26.8,00.0,37.7,31.0,26.5,0000.0,0010.55,0004.71,0003.89
2023-05-27 23:52:00,,0825.4,4.99,0.00,29.4,27.1,00.0,37.7,31.0,26.4,0000.0,0010.38,0004.76,0003.93
2023-05-27 23:53:00,,0825.4,4.99,0.00,29.4,27.4,00.0,37.7,31.1,26.8,0000.0,0010.41,0004.83,0003.98
2023-05-27 23:54:00,,0825.4,4.99,0.00,29.4,27.6,00.0,37.7,31.1,27.2,0000.0,0010.39,0004.91,0004.04
2023-05-27 23:55:00,,0825.4,5.00,0.00,29.4,27.7,00.0,37.8,31.1,27.5,0000.0,0010.19,0005.01,0004.10
2023-05-27 23:56:00,,0825.4,5.01,0.00,29.5,27.9,00.0,37.8,31.2,27.5,0000.0,0010.62,0005.08,0004.17
2023-05-27 23:57:00,,0825.4,5.00,0.00,29.5,28.0,00.0,37.8,31.2,27.6,0000.0,0010.75,0005.11,0004.23
2023-05-27 23:58:00,,0825.3,5.00,0.00,29.5,28.1,00.0,37.8,31.3,27.0,0000.0,0010.77,0005.11,0004.26
2023-05-27 23:59:00,,0825.3,4.99,0.00,29.5,28.2,00.0,37.8,31.3,26.4,0000.0,0010.67,0005.11,0004.28
